This demonstration page uses our WeatherBlox Daily Observations layout. Learn more.

Left ArrowRight Arrow

40.97296, -117.73568

Hourly Observations for May 23, 2022

Temp ( °F °C ) Dew Point ( °F °C ) Humidity (%) Winds ( mph kmh ) Pressure ( in mb ) Visibility ( mi km ) Precip ( " mm )
12:56 am 00:56 Clear 53 11.7 20 -6.7 27 27 NE 16 26 30.05 1018 10 16 0.00 0.00
1:56 am 01:56 Clear 52 11.1 21 -6.1 30 30 NE 14 22 30.06 1018 10 16 0.00 0.00
2:56 am 02:56 Clear 51 10.6 22 -5.6 32 32 NE 15 24 30.05 1018 10 16 0.00 0.00
3:56 am 03:56 Mostly Clear 50 10 23 -5 35 35 ENE 13 20 30.05 1018 10 16 0.00 0.00
4:56 am 04:56 Clear 48 8.9 24 -4.4 39 39 NE 9 15 30.06 1018 10 16 0.00 0.00
5:56 am 05:56 Mostly Sunny 48 8.9 23 -5 37 37 ENE 10 17 30.07 1018 10 16 0.00 0.00
6:56 am 06:56 Sunny 52 11.1 25 -3.9 35 35 ENE 12 19 30.08 1019 10 16 0.00 0.00
7:56 am 07:56 Sunny 55 12.8 25 -3.9 31 31 NE 10 17 30.08 1019 10 16 0.00 0.00
8:56 am 08:56 Sunny 60 15.6 25 -3.9 26 26 ENE 6 9 30.08 1019 10 16 0.00 0.00
9:56 am 09:56 Sunny 63 17.2 24 -4.4 23 23 VRB 3 6 30.05 1018 10 16 0.00 0.00
10:56 am 10:56 Sunny 65 18.3 20 -6.7 18 18 Calm 30.04 1017 10 16 0.00 0.00
11:56 am 11:56 Sunny 67 19.4 21 -6.1 17 17 SSE 3 6 30.03 1017 10 16 0.00 0.00
12:56 pm 12:56 Sunny 70 21.1 23 -5 17 17 W 9 15 30.00 1016 10 16 0.00 0.00
1:56 pm 13:56 Sunny 73 22.8 23 -5 15 15 N 8 13 29.98 1015 10 16 0.00 0.00
2:56 pm 14:56 Sunny 73 22.8 23 -5 15 15 undefined N/A 29.96 1015 10 16 0.00 0.00
3:56 pm 15:56 Sunny 74 23.3 23 -5 15 15 S 7 11 29.94 1014 10 16 0.00 0.00
4:56 pm 16:56 Sunny 75 23.9 22 -5.6 14 14 N 9 15 29.93 1014 10 16 0.00 0.00
5:56 pm 17:56 Sunny 74 23.3 21 -6.1 14 14 VRB 3 6 29.91 1013 10 16 0.00 0.00
6:56 pm 18:56 Sunny 73 22.8 22 -5.6 15 15 Calm 29.89 1012 10 16 0.00 0.00
7:56 pm 19:56 Sunny 69 20.6 23 -5 17 17 NNE 6 9 29.90 1013 10 16 0.00 0.00
8:56 pm 20:56 Clear 54 12.2 24 -4.4 31 31 Calm 29.93 1014 10 16 0.00 0.00
9:56 pm 21:56 Clear 50 10 22 -5.6 33 33 Calm 29.95 1014 10 16 0.00 0.00
10:56 pm 22:56 Clear 44 6.7 21 -6.1 40 40 Calm 29.96 1014 10 16 0.00 0.00
11:56 pm 23:56 Clear 43 6.1 23 -5 45 45 Calm 29.96 1015 10 16 0.00 0.00

Powered by AerisWeather